Flag for U.S.A. Weather past 2 weeks in Manassas, Virginia, U.S.A.

Now
52 °F

Passing clouds.


Feels Like: 51 °F
Forecast: 49 / 58 °F
Wind: 5 mph from North

Location: Manassas Municipal

Current Time: Oct 22, 2014 at 1:26:19 AM

Latest Report: Oct 22, 2014 at 12:55 AM


Visibility: 10 mi

Pressure: 29.90 "Hg

Humidity: 100%

Dew point: 52 °F

Location of ManassasLocation

Historic Weather in Manassas — Graph

°F

Manassas temperature yesterday

Maximum temperature yesterday: 68 °F (at 1:50 PM)
Minimum temperature yesterday: 45 °F (at 6:15 AM)
Average temperature yesterday: 54 °F

Past Weeks' High & Low Weather Summary

 TemperatureHumidityPressure
High82 °F (Oct 17, 11:45 AM)100% (Oct 7, 8:55 PM)30.30 "Hg (Oct 7, 8:55 PM)
Low36 °F (Oct 20, 5:55 AM)33% (Oct 9, 1:50 PM)29.65 "Hg (Oct 18, 3:55 AM)
Average58 °F85%29.97 "Hg
* Reported Oct 7 12:15 AM — Oct 22 12:35 AM, Manassas, Weather by CustomWeather, © 2014

Note: Actual official high and low records may vary slightly from our data, if they occured in-between our weather recording intervals... More about our weather records

Advertising

Manassas weather history for previous 24 hours

 ConditionsComfort  
Time TempWeatherWind HumidityBarometerVisibility
12:35 AM
Oct 22
52 °FPassing clouds.5 mph100%29.91 "Hg10 mi
12:15 AM52 °FPassing clouds.5 mph100%29.91 "Hg10 mi
11:55 PM
Oct 21
52 °FPassing clouds.5 mph100%29.92 "Hg10 mi
11:35 PM54 °FPassing clouds.6 mph100%29.92 "Hg10 mi
11:15 PM54 °FOvercast.6 mph100%29.92 "Hg10 mi
10:55 PM54 °FOvercast.7 mph100%29.93 "Hg10 mi
10:35 PM54 °FOvercast.7 mph100%29.92 "Hg10 mi
9:55 PM54 °FLight rain. Overcast.7 mph100%29.92 "Hg10 mi
8:45 PM54 °FLight rain. Overcast.7 mph100%29.91 "Hg10 mi
7:50 PM54 °FLight rain. Overcast.7 mph100%29.90 "Hg10 mi
6:50 PM55 °FLight rain. Overcast.10 mph100%29.88 "Hg10 mi
5:45 PM57 °FMostly cloudy.8 mph94%29.85 "Hg10 mi
3:45 PM64 °FMostly cloudy.No wind64%29.81 "Hg10 mi
2:45 PM68 °FMostly cloudy.5 mph49%29.80 "Hg10 mi
1:50 PM68 °FScattered clouds.No wind49%29.82 "Hg10 mi
12:45 PM66 °FPassing clouds.No wind56%29.84 "Hg10 mi
10:45 AM57 °FScattered clouds.No wind88%29.88 "Hg10 mi
8:45 AM48 °FSunny.No wind100%29.88 "Hg10 mi
6:15 AM45 °FPassing clouds.No wind100%29.86 "Hg1 mi
5:55 AM46 °FPartly cloudy.No wind100%29.87 "Hg2 mi
5:35 AM46 °FMostly cloudy.No wind100%29.87 "Hg1 mi
5:15 AM48 °FPartly cloudy.No wind100%29.87 "Hg3 mi
4:55 AM48 °FOvercast.No wind100%29.87 "Hg2 mi
4:35 AM48 °FPassing clouds.No wind100%29.87 "Hg2 mi
4:15 AM50 °FPassing clouds.No wind100%29.87 "Hg10 mi
3:55 AM50 °FPassing clouds.No wind94%29.87 "Hg10 mi
3:35 AM52 °FOvercast.No wind100%29.88 "Hg10 mi
3:15 AM52 °FOvercast.No wind100%29.88 "Hg10 mi
2:55 AM52 °FPassing clouds.No wind100%29.88 "Hg10 mi
2:35 AM52 °FOvercast.No wind100%29.89 "Hg10 mi
2:15 AM52 °FPassing clouds.No wind100%29.90 "Hg10 mi
1:55 AM52 °FOvercast.3 mph100%29.90 "Hg10 mi
1:35 AM54 °FOvercast.No wind94%29.91 "Hg10 mi
1:15 AM54 °FPassing clouds.No wind100%29.91 "Hg10 mi
Weather by CustomWeather, © 2014

See weather overviewHow to use our weather pages